ZHONGXING-2C

Last updated on Thu Oct 30 2025 00:02:50 GMT+0000 (Coordinated Universal Time)

1 41021U 15063A 25302.63332336 -.00000314 00000+0 00000+0 0 9991 2 41021 0.1651 92.0411 0007964 135.6026 142.0142 1.00275356 36674
UTC large
Height (km)
Speed (km/s)
/
Latitude / Longitude
Inclination (degrees)
Orbital Period (minutes)
Azimuth
Elevation
Range (km)
Doppler Factor

Next 0 passes for location: London (51.5072 / 0.1276)

Sorry there are no passes over London.